GW2463 Weather Reports


Display with metric or nautical units.
time (UTC)temp
F
wind
direction
speed
MPH
gust
MPH
rain 1hr
in
rain 24hr
in
rain mn
in
humidity
%
barometer
mb
20260510033546 48 221 0.0 1.0 0.00 0.19 0.19 93 1010.8
20260510033031 48 49 0.0 0.0 0.00 0.19 0.19 93 1010.8
20260510032521 48 49 0.0 0.0 0.00 0.19 0.19 93 1010.8
20260510032017 48 45 0.0 0.0 0.00 0.19 0.19 93 1010.8
20260510031536 48 45 0.0 0.0 0.00 0.19 0.19 93 1010.8
20260510031034 48 45 0.0 0.0 0.00 0.19 0.19 93 1010.8
20260510030513 49 45 0.0 0.0 0.00 0.19 0.19 93 1010.7
20260510030025 49 46 0.0 0.0 0.00 0.19 0.19 93 1010.7
20260510025524 49 46 0.0 0.0 0.00 0.19 0.19 93 1010.7
20260510025043 49 45 0.0 0.0 0.00 0.19 0.19 93 1010.6
20260510024521 49 45 0.0 1.0 0.00 0.19 0.19 93 1010.7
20260510024020 49 46 0.0 1.0 0.00 0.19 0.19 93 1010.7
20260510023520 49 46 0.0 0.0 0.00 0.19 0.19 93 1010.7
20260510023018 49 45 0.0 0.0 0.00 0.19 0.19 93 1010.8
20260510022517 49 19 0.0 0.0 0.00 0.19 0.19 93 1010.8
20260510022016 49 19 0.0 0.0 0.00 0.19 0.19 93 1011.0
20260510021513 49 19 0.0 0.0 0.00 0.19 0.19 93 1010.9
20260510021031 49 19 0.0 0.0 0.00 0.19 0.19 93 1010.9
20260510020527 49 17 0.0 0.0 0.00 0.19 0.19 92 1011.0
20260510020022 49 18 0.0 0.0 0.00 0.19 0.19 92 1011.0
20260510015519 49 18 0.0 0.0 0.00 0.19 0.19 92 1010.9
20260510015036 49 18 0.0 0.0 0.00 0.19 0.19 92 1010.8
20260510014512 49 18 0.0 0.0 0.00 0.19 0.19 92 1010.7
20260510014031 49 18 0.0 0.0 0.00 0.19 0.19 92 1010.6
20260510013531 49 18 0.0 0.0 0.00 0.19 0.19 92 1010.7
20260510013051 50 15 0.0 0.0 0.00 0.19 0.19 92 1010.7
20260510012530 50 16 0.0 0.0 0.00 0.19 0.19 92 1010.8
20260510012013 50 15 0.0 0.0 0.00 0.19 0.19 91 1010.8
20260510011512 50 15 0.0 0.0 0.00 0.19 0.19 91 1010.7
20260510011015 50 15 0.0 1.0 0.00 0.19 0.19 91 1010.7
20260510010515 50 15 0.0 1.0 0.00 0.19 0.19 91 1010.4
20260510010031 50 15 0.0 1.0 0.00 0.19 0.19 91 1010.3
20260510005529 51 15 0.0 0.0 0.00 0.19 0.19 90 1010.5
20260510005032 51 15 0.0 0.0 0.00 0.19 0.19 90 1010.4
20260510004512 51 15 0.0 0.0 0.00 0.19 0.19 90 1010.5
20260510004052 51 15 0.0 1.0 0.00 0.19 0.19 90 1010.6
20260510003543 51 15 0.0 1.0 0.00 0.19 0.19 89 1010.6
20260510003021 51 15 0.0 0.0 0.00 0.19 0.19 89 1010.4
20260510002518 52 15 0.0 0.0 0.00 0.19 0.19 88 1010.3
20260510002015 52 15 0.0 0.0 0.00 0.19 0.19 88 1010.2
20260510001513 52 15 0.0 0.0 0.00 0.19 0.19 87 1010.0
20260510001033 52 15 0.0 0.0 0.00 0.19 0.19 86 1009.9
20260510000552 52 15 0.0 0.0 0.00 0.19 0.19 85 1010.0
20260510000047 53 15 0.0 0.0 0.00 0.19 0.19 84 1010.0
20260509235525 53 15 0.0 0.0 0.00 0.19 0.19 84 1009.8
20260509235024 53 15 0.0 0.0 0.00 0.19 0.19 83 1009.6
20260509234522 53 15 0.0 0.0 0.00 0.19 0.19 83 1009.7
20260509234040 54 15 0.0 0.0 0.00 0.19 0.19 83 1009.6
20260509233539 54 15 0.0 0.0 0.00 0.19 0.19 83 1009.6
20260509233032 54 15 0.0 1.0 0.00 0.19 0.19 82 1009.7
20260509232552 54 15 0.0 1.0 0.00 0.19 0.19 81 1009.5
20260509232051 54 222 0.0 7.0 0.00 0.19 0.19 81 1009.4
20260509231532 54 223 0.0 7.0 0.00 0.19 0.19 80 1009.3
20260509231052 54 123 0.0 1.0 0.00 0.19 0.19 81 1009.3
20260509230551 55 219 0.0 1.0 0.00 0.19 0.19 80 1009.4
20260509230027 55 270 0.0 1.0 0.00 0.19 0.19 80 1009.5
20260509225526 55 210 0.0 1.0 0.00 0.19 0.19 81 1009.5
20260509225026 55 205 0.0 2.0 0.00 0.19 0.19 81 1009.5
20260509224527 55 232 0.0 2.0 0.00 0.19 0.19 83 1009.6
20260509224025 55 287 0.0 2.0 0.00 0.19 0.19 82 1009.5
20260509223525 54 278 0.0 2.0 0.00 0.19 0.19 82 1009.6
20260509223026 54 274 1.0 2.0 0.00 0.19 0.19 84 1009.5
20260509222524 54 219 0.0 2.0 0.00 0.19 0.19 84 1009.6
20260509222024 54 184 0.0 1.0 0.00 0.19 0.19 85 1009.7
20260509221524 54 301 0.0 3.0 0.00 0.19 0.19 85 1009.7
20260509221023 53 229 0.0 3.0 0.00 0.19 0.19 85 1009.7
20260509220521 53 280 0.0 2.0 0.00 0.19 0.19 86 1009.6
20260509220013 53 246 0.0 10.0 0.00 0.19 0.19 86 1009.8
20260509215512 53 239 1.0 10.0 0.00 0.19 0.19 86 1009.8
20260509215031 53 255 0.0 5.0 0.00 0.19 0.19 87 1009.8
20260509214529 53 256 1.0 5.0 0.00 0.19 0.19 87 1009.9
20260509214026 53 230 1.0 5.0 0.00 0.19 0.19 87 1009.9
20260509213523 53 208 1.0 6.0 0.00 0.19 0.19 89 1010.0
20260509213020 53 273 0.0 6.0 0.00 0.19 0.19 88 1010.0
20260509212517 52 284 1.0 10.0 0.00 0.19 0.19 88 1010.0
20260509212014 52 212 1.0 10.0 0.00 0.19 0.19 88 1010.0
20260509211540 52 238 2.0 7.0 0.00 0.19 0.19 90 1010.0
20260509211049 52 252 2.0 7.0 0.00 0.19 0.19 91 1010.0
20260509210532 51 280 0.0 2.0 0.01 0.19 0.19 92 1010.0
20260509210019 51 238 0.0 2.0 0.01 0.19 0.19 92 1009.8
20260509205536 51 231 0.0 2.0 0.01 0.19 0.19 92 1009.9
20260509205053 50 277 0.0 1.0 0.01 0.19 0.19 92 1010.0
20260509204530 50 243 0.0 2.0 0.01 0.19 0.19 92 1009.9
20260509204019 50 276 0.0 2.0 0.01 0.19 0.19 92 1010.0
20260509203517 50 280 0.0 1.0 0.01 0.19 0.19 92 1010.0
20260509203030 50 253 0.0 1.0 0.01 0.19 0.19 92 1010.1
20260509202547 50 271 0.0 1.0 0.01 0.19 0.19 91 1010.3
20260509202045 50 259 0.0 2.0 0.01 0.19 0.19 91 1010.4
20260509201543 49 260 0.0 2.0 0.01 0.19 0.19 91 1010.5
20260509201019 50 233 1.0 3.0 0.01 0.19 0.19 90 1010.4
20260509200535 50 226 1.0 5.0 0.00 0.18 0.18 90 1010.4
20260509200026 50 280 2.0 5.0 0.01 0.18 0.18 90 1010.5
20260509195520 50 281 0.0 2.0 0.01 0.18 0.18 91 1010.5
20260509195016 50 262 0.0 4.0 0.01 0.18 0.18 91 1010.5
20260509194533 50 266 1.0 4.0 0.01 0.18 0.18 91 1010.7
20260509194029 50 293 0.0 7.0 0.02 0.18 0.18 91 1010.8
20260509193526 50 230 2.0 7.0 0.02 0.18 0.18 91 1010.9
20260509193044 49 253 0.0 3.0 0.03 0.18 0.18 91 1011.0
20260509192520 49 288 1.0 3.0 0.03 0.18 0.18 91 1011.0
20260509192018 49 269 0.0 2.0 0.03 0.18 0.18 91 1011.1
20260509191037 49 280 0.0 3.0 0.04 0.18 0.18 91 1011.0
20260509190513 49 276 0.0 2.0 0.05 0.18 0.18 91 1011.1
20260509190027 49 255 0.0 3.0 0.05 0.17 0.17 91 1011.3
20260509185525 49 250 2.0 4.0 0.05 0.17 0.17 91 1011.4
20260509185025 49 314 1.0 6.0 0.06 0.17 0.17 91 1011.4
20260509184524 49 240 2.0 6.0 0.07 0.17 0.17 91 1011.4
20260509184023 49 251 0.0 3.0 0.06 0.16 0.16 91 1011.5
20260509183541 49 242 0.0 3.0 0.07 0.16 0.16 91 1011.5
20260509183019 49 267 0.0 4.0 0.06 0.15 0.15 91 1011.4
20260509182518 49 242 1.0 4.0 0.06 0.15 0.15 92 1011.4
20260509182017 49 271 0.0 2.0 0.06 0.15 0.15 92 1011.3
20260509181515 50 91 0.0 2.0 0.05 0.14 0.14 92 1011.3
20260509181014 50 221 0.0 2.0 0.05 0.14 0.14 92 1011.3
20260509180512 50 15 0.0 2.0 0.04 0.13 0.13 92 1011.3
20260509180022 50 70 0.0 2.0 0.04 0.12 0.12 92 1011.4
20260509175519 50 271 0.0 2.0 0.04 0.12 0.12 92 1011.4
20260509175037 50 222 0.0 2.0 0.03 0.11 0.11 92 1011.4
20260509174516 50 262 0.0 1.0 0.02 0.10 0.10 92 1011.4
20260509174016 50 208 0.0 1.0 0.02 0.10 0.10 92 1011.4
20260509173515 50 274 0.0 1.0 0.02 0.09 0.09 92 1011.4
20260509173016 50 277 0.0 2.0 0.02 0.09 0.09 92 1011.4
20260509172518 50 235 0.0 2.0 0.02 0.09 0.09 92 1011.3
20260509172039 50 242 0.0 2.0 0.02 0.09 0.09 92 1011.3
20260509171519 50 245 0.0 4.0 0.02 0.09 0.09 92 1011.4
20260509171018 50 287 1.0 4.0 0.02 0.09 0.09 92 1011.4
20260509170516 50 238 0.0 4.0 0.02 0.09 0.09 92 1011.4
20260509170032 50 255 0.0 1.0 0.01 0.08 0.08 92 1011.4
20260509165550 50 284 0.0 1.0 0.01 0.08 0.08 92 1011.3
20260509165048 50 105 0.0 1.0 0.01 0.08 0.08 92 1011.4
20260509164525 50 215 0.0 2.0 0.01 0.08 0.08 92 1011.4
20260509164042 50 224 0.0 2.0 0.01 0.08 0.08 92 1011.3
20260509163517 50 46 0.0 2.0 0.00 0.07 0.07 92 1011.4
20260509163014 50 71 0.0 2.0 0.00 0.07 0.07 92 1011.3
20260509162531 50 281 0.0 1.0 0.00 0.07 0.07 92 1011.5
20260509162048 50 243 0.0 1.0 0.00 0.07 0.07 92 1011.4
20260509161524 50 122 0.0 1.0 0.00 0.07 0.07 92 1011.5
20260509161021 50 208 0.0 1.0 0.00 0.07 0.07 92 1011.6
20260509160518 50 236 0.0 2.0 0.01 0.07 0.07 92 1011.7
20260509160029 50 239 0.0 2.0 0.01 0.07 0.07 92 1011.6
20260509155526 50 229 0.0 1.0 0.01 0.07 0.07 92 1011.6
20260509155022 50 245 0.0 2.0 0.01 0.07 0.07 93 1011.6
20260509154519 50 230 0.0 1.0 0.01 0.07 0.07 93 1011.6
20260509154015 49 63 0.0 1.0 0.01 0.07 0.07 93 1011.5
20260509153512 49 68 0.0 1.0 0.01 0.07 0.07 93 1011.4
20260509153031 49 208 0.0 1.0 0.02 0.07 0.07 93 1011.4
20260509152529 49 110 0.0 1.0 0.02 0.07 0.07 93 1011.5
20260509152027 49 155 0.0 0.0 0.02 0.07 0.07 93 1011.8
20260509151525 49 170 0.0 0.0 0.02 0.07 0.07 93 1011.9
20260509151043 48 219 0.0 1.0 0.02 0.07 0.07 93 1012.0
20260509150521 48 219 0.0 1.0 0.01 0.06 0.06 93 1012.0
20260509150013 48 236 0.0 1.0 0.01 0.06 0.06 92 1012.1
20260509145529 48 76 0.0 1.0 0.01 0.06 0.06 92 1012.1
20260509145042 48 252 0.0 1.0 0.01 0.06 0.06 92 1012.1
20260509144517 48 148 0.0 1.0 0.01 0.06 0.06 92 1012.1
20260509144032 48 176 0.0 1.0 0.01 0.06 0.06 92 1012.0
20260509143548 48 110 0.0 1.0 0.01 0.06 0.06 92 1012.1
20260509143024 48 159 0.0 1.0 0.00 0.05 0.05 92 1012.0
20260509142521 48 141 0.0 1.0 0.00 0.05 0.05 92 1011.9
20260509142040 48 142 0.0 0.0 0.00 0.05 0.05 92 1011.8
20260509141518 48 83 0.0 0.0 0.00 0.05 0.05 92 1011.7
20260509141017 48 83 0.0 1.0 0.00 0.05 0.05 92 1011.8
20260509140536 47 82 0.0 1.0 0.00 0.05 0.05 92 1011.6
20260509140029 47 83 0.0 1.0 0.00 0.05 0.05 92 1011.6
20260509135528 47 131 0.0 1.0 0.00 0.05 0.05 92 1011.6
20260509135047 47 139 0.0 1.0 0.00 0.05 0.05 92 1011.6
20260509134525 47 138 0.0 0.0 0.00 0.05 0.05 92 1011.7
20260509134023 47 138 0.0 1.0 0.00 0.05 0.05 92 1011.7
20260509133523 47 136 0.0 1.0 0.00 0.05 0.05 92 1011.6
20260509133022 47 78 0.0 0.0 0.00 0.05 0.05 92 1011.8
20260509132521 47 72 0.0 0.0 0.00 0.05 0.05 92 1011.6
20260509132020 47 72 0.0 0.0 0.01 0.05 0.05 92 1011.7
20260509131518 47 119 0.0 0.0 0.01 0.05 0.05 92 1011.8
20260509131018 47 118 0.0 0.0 0.01 0.05 0.05 92 1011.9
20260509130536 47 119 0.0 0.0 0.01 0.05 0.05 93 1011.9
20260509130031 47 119 0.0 1.0 0.01 0.05 0.05 93 1012.0
20260509125530 47 117 0.0 1.0 0.01 0.05 0.05 93 1011.9
20260509125028 47 119 0.0 1.0 0.01 0.05 0.05 93 1011.9
20260509124527 47 60 0.0 0.0 0.01 0.05 0.05 93 1012.0
20260509124026 47 61 0.0 1.0 0.01 0.05 0.05 93 1011.9
20260509123525 47 60 0.0 2.0 0.01 0.05 0.05 93 1012.0
20260509123024 47 215 0.0 1.0 0.01 0.05 0.05 93 1012.0
20260509122523 46 162 0.0 0.0 0.01 0.05 0.05 93 1012.1
20260509122023 46 162 0.0 1.0 0.00 0.04 0.04 93 1012.1
20260509121521 46 162 0.0 1.0 0.00 0.04 0.04 93 1012.0
20260509121020 46 121 0.0 0.0 0.00 0.04 0.04 93 1012.0
20260509120518 46 121 0.0 0.0 0.00 0.04 0.04 93 1011.9
20260509120013 46 120 0.0 0.0 0.00 0.04 0.04 93 1011.8
20260509115530 46 120 0.0 0.0 0.00 0.04 0.04 93 1011.7
20260509115027 46 120 0.0 0.0 0.00 0.04 0.04 93 1011.7
20260509114545 46 119 0.0 0.0 0.00 0.04 0.04 93 1011.8
20260509114020 46 120 0.0 0.0 0.00 0.04 0.04 93 1011.9
20260509113517 46 120 0.0 0.0 0.00 0.04 0.04 93 1011.8
20260509113014 46 122 0.0 0.0 0.00 0.04 0.04 93 1011.9
20260509112512 46 122 0.0 2.0 0.00 0.04 0.04 93 1011.9
20260509112029 46 102 0.0 2.0 0.00 0.04 0.04 93 1011.7
20260509111542 46 108 0.0 0.0 0.00 0.04 0.04 93 1011.8
20260509111038 46 86 0.0 0.0 0.00 0.04 0.04 93 1011.7
20260509110514 46 86 0.0 0.0 0.00 0.04 0.04 93 1011.8
20260509110029 46 86 0.0 0.0 0.00 0.04 0.04 93 1011.8
20260509105527 46 86 0.0 0.0 0.00 0.04 0.04 93 1011.7
20260509105026 46 86 0.0 0.0 0.00 0.04 0.04 93 1011.8
20260509104525 46 86 0.0 0.0 0.00 0.04 0.04 93 1011.7
20260509104025 46 86 0.0 1.0 0.00 0.04 0.04 93 1011.7
20260509103525 45 86 0.0 1.0 0.00 0.04 0.04 93 1011.8
20260509103023 45 135 0.0 0.0 0.00 0.04 0.04 93 1011.9
20260509102522 45 136 0.0 0.0 0.00 0.04 0.04 93 1011.7
20260509102020 45 136 0.0 0.0 0.00 0.04 0.04 93 1011.7
20260509101518 45 135 0.0 0.0 0.00 0.04 0.04 93 1011.8
20260509101037 45 135 0.0 0.0 0.00 0.04 0.04 93 1011.6
20260509100516 45 135 0.0 1.0 0.00 0.04 0.04 93 1011.6
20260509100029 45 135 0.0 1.0 0.00 0.04 0.04 93 1011.6
20260509095526 45 165 0.0 0.0 0.00 0.04 0.04 93 1011.7
20260509095023 45 166 0.0 0.0 0.00 0.04 0.04 93 1011.7
20260509094520 45 165 0.0 0.0 0.00 0.04 0.04 93 1011.8
20260509094018 45 167 0.0 0.0 0.00 0.04 0.04 92 1011.9
20260509093516 46 167 0.0 0.0 0.00 0.04 0.04 93 1012.0
20260509093015 46 167 0.0 0.0 0.00 0.04 0.04 92 1012.0
20260509092514 46 167 0.0 0.0 0.00 0.04 0.04 92 1012.1
20260509092013 46 167 0.0 0.0 0.00 0.04 0.04 92 1012.0
20260509091512 46 167 0.0 0.0 0.00 0.04 0.04 92 1012.0
20260509091031 46 167 0.0 0.0 0.00 0.04 0.04 92 1012.1
20260509090550 46 168 0.0 1.0 0.00 0.04 0.04 92 1012.1
20260509090024 46 168 0.0 1.0 0.00 0.04 0.04 92 1012.1
20260509085523 46 169 0.0 0.0 0.00 0.04 0.04 92 1012.3
20260509085022 46 169 0.0 0.0 0.00 0.04 0.04 92 1012.3
20260509084521 46 169 0.0 0.0 0.00 0.04 0.04 92 1012.3
20260509084041 46 169 0.0 0.0 0.00 0.04 0.04 92 1012.3
20260509083519 46 169 0.0 0.0 0.00 0.04 0.04 92 1012.3
20260509083018 46 169 0.0 0.0 0.00 0.04 0.04 92 1012.3
20260509082517 46 169 0.0 0.0 0.00 0.04 0.04 92 1012.3
20260509082016 46 169 0.0 0.0 0.00 0.04 0.04 92 1012.3
20260509081516 46 169 0.0 1.0 0.00 0.04 0.04 92 1012.3
20260509081036 46 169 0.0 1.0 0.00 0.04 0.04 92 1012.3
20260509080515 46 181 0.0 0.0 0.00 0.04 0.04 92 1012.4
20260509080030 46 182 0.0 0.0 0.00 0.04 0.04 92 1012.6
20260509075531 46 182 0.0 0.0 0.00 0.04 0.04 92 1012.8
20260509075031 46 181 0.0 0.0 0.00 0.04 0.04 92 1012.7
20260509074531 46 181 0.0 0.0 0.00 0.04 0.04 92 1012.5
20260509074031 46 181 0.0 0.0 0.00 0.04 0.04 92 1012.5
20260509073528 46 181 0.0 0.0 0.00 0.04 0.04 92 1012.6
20260509073048 46 182 0.0 0.0 0.01 0.04 0.04 92 1012.3
20260509072525 46 179 0.0 1.0 0.01 0.04 0.04 92 1012.3
20260509072024 46 179 0.0 1.0 0.01 0.04 0.04 92 1012.2
20260509071542 45 181 0.0 1.0 0.01 0.04 0.04 92 1012.1
20260509071020 45 107 0.0 0.0 0.02 0.04 0.04 92 1012.1
20260509070519 45 105 0.0 0.0 0.02 0.04 0.04 91 1012.0
20260509070012 45 105 0.0 0.0 0.02 0.04 0.04 91 1012.0
20260509065511 45 106 0.0 0.0 0.02 0.05 0.04 91 1012.2
20260509065027 45 106 0.0 0.0 0.02 0.05 0.04 91 1012.2
20260509064526 45 105 0.0 0.0 0.03 0.05 0.04 91 1012.3
20260509064025 46 105 0.0 0.0 0.03 0.05 0.04 91 1012.5
20260509063524 46 105 0.0 0.0 0.04 0.05 0.04 90 1012.6
20260509063023 46 106 0.0 0.0 0.03 0.04 0.03 90 1012.8
20260509062521 46 105 0.0 0.0 0.03 0.04 0.03 90 1012.9
20260509062020 46 106 0.0 0.0 0.03 0.04 0.03 90 1012.9
20260509061519 46 105 0.0 0.0 0.03 0.04 0.03 89 1013.0
20260509061039 46 106 0.0 0.0 0.02 0.03 0.02 89 1012.9
20260509060518 46 106 0.0 0.0 0.02 0.03 0.02 89 1013.0
20260509060034 46 105 0.0 1.0 0.02 0.03 0.02 88 1013.0
20260509055511 46 105 0.0 1.0 0.02 0.04 0.02 88 1012.9
20260509055012 47 146 0.0 1.0 0.02 0.04 0.02 88 1013.0
20260509054533 47 156 0.0 1.0 0.01 0.03 0.01 87 1013.0
20260509054030 47 211 0.0 2.0 0.01 0.03 0.01 87 1013.1
20260509053530 47 170 0.0 2.0 0.00 0.02 0.00 87 1013.2
20260509053029 47 105 0.0 1.0 0.00 0.02 0.00 87 1013.2
20260509052530 47 219 0.0 1.0 0.00 0.02 0.00 87 1013.4
20260509052011 47 197 0.0 0.0 0.00 0.02 0.00 86 1013.2
20260509051533 47 195 0.0 0.0 0.00 0.02 0.00 86 1012.9
20260509051031 47 195 0.0 0.0 0.00 0.02 0.00 85 1012.8
20260509050534 47 195 0.0 0.0 0.00 0.02 0.00 85 1012.8
20260509050025 47 195 0.0 0.0 0.00 0.02 0.00 85 1012.7
20260509045526 47 197 0.0 1.0 0.00 0.04 0.00 84 1012.8
20260509045026 47 198 0.0 1.0 0.00 0.04 0.00 84 1012.8
20260509044526 47 198 0.0 1.0 0.00 0.04 0.00 83 1012.6
20260509044025 47 200 0.0 1.0 0.00 0.04 0.00 83 1012.5
20260509043526 47 8 0.0 2.0 0.00 0.04 0.00 83 1012.8
20260509043026 47 257 0.0 0.0 0.00 0.04 0.00 83 1012.8
20260509042523 47 257 0.0 0.0 0.00 0.04 0.00 83 1012.8
20260509042020 47 257 0.0 0.0 0.00 0.04 0.00 83 1012.8
20260509041516 47 259 0.0 0.0 0.00 0.04 0.00 82 1013.0
20260509041033 47 266 0.0 0.0 0.00 0.04 0.00 82 1013.1
20260509040530 47 266 0.0 0.0 0.00 0.04 0.00 82 1013.0
20260509040022 47 267 0.0 0.0 0.00 0.04 0.00 82 1013.1
20260509035532 47 266 0.0 1.0 0.00 0.04 0.04 82 1013.2
20260509035049 47 266 0.0 1.0 0.00 0.04 0.04 82 1013.2
20260509034525 47 270 0.0 0.0 0.00 0.04 0.04 82 1013.2
20260509034022 47 270 0.0 0.0 0.00 0.04 0.04 82 1013.2